SCP
0 0 0 0 0 0 0 0 -0 -0 0 -0 -0 -0 -0 0 0 -0 -0 -0 -0 -0 -0 0 -0 0 -0 -0 -0 -0 -0 -0 -0 -0 -0 -0 -0 -0 -0 -0 -0 -0 -0 -0 -0 -0 -0 -0 -0
0 0 0 0 0 0 -0 -0 0 0 -0 0 -0 0 0 -0 -0 0 0 -0 -0 -0 -0 -0 0 -0 -0 -0 -0 -0 -0 -0 -0 -0 -0 -0 -0 -0 -0 -0 -0 -0 -0 -0 -0 -0 -0 -0 -0
0 0 0 0 0 -0 -0 -0 -0 -0 -0 0 0 0 0 0 -0 -0 -0 -0 -0 -0 -0 -0 -0 -0 -0 -0 -0 -0 -0 -0 -0 -0 -0 -0 -0 -0 -0 -0 -0 -0 -0 -0 -0 -0 -0 -0 -0
0 0 0 0 0 0 -0 -0 -0 -0 -0 0 0 0 -0 0 -0 0 0 -0 0 0 -0 -0 -0 -0 -0 -0 -0 -0 -0 -0 -0 -0 -0 -0 -0 -0 -0 -0 -0 -0 -0 -0 -0 -0 -0 -0 -0
0 0 0 0 -0 0 0 -0 -0 -0 0 -0 0 -0 -0 0 -0 -0 -0 -0 0 0 -0 0 -0 -0 -0 -0 -0 -0 -0 -0 -0 -0 -0 -0 -0 -0 -0 -0 -0 -0 -0 -0 -0 -0 -0 -0 -0
0 0 0 0 -0 0 0 -0 0 0 -0 -0 -0 0 0 -0 -0 -0 -0 -0 -0 -0 -0 -0 -0 -0 -0 -0 -0 -0 -0 -0 -0 -0 -0 -0 -0 -0 -0 -0 -0 -0 -0 -0 -0 -0 -0 -0 -0
0 -0 -0 -0 0 -0 -0 -0 -0 -0 -0 -0 -0 -0 -0 -0 -0 -0 -0 -0 -0 -0 -0 -0 -0 -0 -0 -0 -0 -0 -0 -0 -0 -0 -0 -0 -0 -0 -0 -0 -0 -0 -0 -0 -0 -0 -0 -0 -0
0 0 0 -0 0 0 -0 -0 -0 0 -0 -0 -0 -0 -0 -0 -0 -0 -0 -0 -0 -0 -0 -0 -0 -0 -0 -0 -0 -0 -0 -0 -0 -0 -0 -0 -0 -0 -0 -0 -0 -0 -0 -0 -0 -0 -0 -0 -0
0 0 0 0 0 0 -0 -0 0 0 -0 0 -0 -0 -0 -0 -0 -0 -0 -0 -0 -0 -0 -0 -0 -0 -0 -0 0 -0 -0 -0 -0 -0 -0 -0 -0 -0 -0 -0 -0 -0 -0 -0 -0 -0 -0 -0 -0
0 0 0 0 0 0 -0 -0 -0 0 -0 -0 -0 -0 -0 -0 -0 -0 -0 -0 -0 -0 -0 -0 -0 -0 -0 0 0 0 0 0 0 0 -0 0 0 0 0 0 -0 -0 -0 -0 -0 -0 0 0 0
0 0 0 0 0 0 0 0 0 0 0 -0 -0 -0 -0 -0 -0 -0 -0 -0 -0 -0 0 0 -0 0 0 0 0 0 0 0 0 0 0 0 0 0 0 0 0 0 0 0 0 0 0 0 0
0 0 0 0 0 0 0 0 0 0 0 0 0 -0 -0 -0 -0 -0 -0 -0 -0 -0 -0 -0 -0 0 0 0 0 0 0 0 0 0 0 0 0 0 0 0 0 0 0 0 0 0 0 0 0
0 0 0 0 0 0 0 0 0 0 -0 0 0 0 -0 -0 -0 -0 -0 -0 -0 -0 -0 -0 0 0 0 0 0 0 0 0 0 0 0 0 0 0 0 0 0 0 0 0 0 0 0 0 0
0 0 0 0 0 0 0 0 0 0 -0 0 0 0 0 -0 -0 -0 -0 -0 -0 -0 -0 0 0 0 0 0 0 0 0 0 0 0 0 0 0 0 0 0 0 0 0 0 0 0 0 0 0
0 0 0 0 0 0 0 0 0 0 0 0 0 0 0 0 -0 -0 -0 -0 -0 0 -0 0 0 0 0 0 0 0 0 0 0 0 0 0 0 0 0 0 0 0 0 0 0 0 0 0 0
0 0 0 0 0 0 0 0 0 0 0 0 0 0 0 0 0 0 0 0 0 0 0 0 0 0 0 0 0 0 0 0 0 0 0 0 0 0 0 0 0 0 0 0 0 0 0 0 0
0 0 0 0 0 0 0 0 0 0 0 0 0 0 0 0 0 0 0 0 0 0 0 0 0 0 0 0 0 0 0 0 0 0 0 0 0 0 0 0 0 0 0 0 0 0 0 0 0
0 0 0 0 0 0 0 0 0 0 0 0 0 0 0 0 0 0 0 0 0 0 0 0 0 0 0 0 0 0 0 0 0 0 0 0 0 0 0 0 0 0 0 0 0 0 0 0 0
0 0 0 0 0 0 0 0 0 0 0 0 0 0 0 0 0 0 0 0 0 0 0 0 0 0 0 0 0 0 0 0 0 0 0 0 0 0 0 0 0 0 0 0 0 0 0 0 0
0 0 0 0 0 0 0 -0 0 0 0 0 0 0 0 0 0 0 0 0 0 0 0 0 0 0 0 0 0 0 0 0 0 0 0 0 0 0 0 0 0 0 0 0 0 0 0 0 0
0 0 0 0 0 -0 0 -0 -0 0 0 0 0 -0 0 0 0 0 0 0 0 0 0 0 0 0 0 0 0 0 0 0 0 0 0 0 0 0 0 0 0 0 0 0 0 0 0 0 0
0 0 0 0 0 0 0 -0 -0 0 0 0 0 0 0 0 0 0 0 0 0 0 0 0 0 0 0 0 0 0 0 0 0 0 0 0 0 0 0 0 0 0 0 0 0 0 0 0 0
0 0 0 0 0 0 0 0 -0 -0 0 0 0 0 0 0 0 0 0 0 0 0 0 0 0 0 0 0 0 0 0 0 0 0 0 0 0 0 0 0 0 0 0 0 0 0 0 0 0
0 0 0 0 0 0 0 0 -0 0 0 0 0 0 0 0 0 0 0 0 0 0 0 0 0 0 0 0 0 0 0 0 0 0 0 0 0 0 0 0 0 0 0 0 0 0 0 0 0
0 0 0 0 0 0 0 0 0 0 0 0 0 0 0 0 0 0 0 0 0 0 0 0 0 0 0 0 0 0 0 0 0 0 0 0 0 0 0 0 0 0 0 0 0 0 0 0 0
0 0 0 0 0 0 0 0 0 0 0 0 0 0 0 0 -0 0 0 0 0 0 0 0 0 0 0 0 0 0 0 0 0 0 0 0 0 0 0 0 0 0 0 0 0 0 0 0 0
0 0 0 0 0 0 0 0 0 0 0 0 0 0 0 0 0 0 0 0 0 0 0 0 0 0 0 0 0 0 0 0 0 0 0 0 0 0 0 0 0 0 0 0 0 0 0 0 0
0 0 0 0 0 0 0 0 0 0 0 0 0 0 0 0 0 0 0 0 0 0 0 0 0 0 0 0 0 0 0 0 0 0 0 0 0 0 0 0 0 0 0 0 0 0 0 0 0
0 0 0 0 0 0 0 0 0 0 0 0 0 0 0 0 0 0 0 0 0 0 0 0 0 0 0 0 0 0 0 0 0 0 0 0 0 0 0 0 0 0 0 0 0 0 0 0 0
0 0 0 0 0 0 0 0 0 0 0 0 0 -0 -0 -0 0 -0 -0 0 0 0 0 0 0 0 0 0 0 0 0 0 0 0 0 0 0 0 0 0 0 0 0 0 0 0 0 0 0
Wind_Speed_500mb
8 5 6 10 2 6 7 9 16 13 8 10 19 12 6 29 11 7 28 27 34 36 34 32 26 27 25 19 17 19 21 25 27 28 27 26 26 27 30 38 26 19 21 22 30 31 34 40 45
5 1 8 11 5 2 8 16 12 16 25 17 10 4 1 9 13 31 38 33 35 34 32 29 28 27 25 19 17 17 18 22 23 26 26 25 23 24 27 32 26 19 22 29 30 31 35 40 45
3 1 7 5 5 10 8 5 18 25 18 9 8 3 9 11 20 41 27 38 32 27 28 29 27 27 25 21 17 16 17 18 20 25 25 23 22 21 21 22 21 21 26 29 29 32 36 40 46
4 6 11 3 8 15 15 11 37 19 7 5 5 14 10 16 27 27 36 38 35 32 29 28 28 27 25 22 16 15 14 15 18 21 23 23 22 20 20 19 18 21 24 26 28 31 34 39 45
2 11 7 6 5 11 12 16 27 14 19 16 5 8 10 23 25 23 46 38 37 32 27 30 30 28 26 23 18 15 13 14 15 17 19 21 20 19 19 18 20 21 22 24 26 29 31 36 41
9 8 7 7 13 16 10 13 15 15 17 17 3 5 11 19 24 36 43 40 32 36 35 34 34 31 27 23 20 17 14 15 15 14 16 18 19 18 18 17 19 21 22 23 25 27 31 36 38
6 4 14 13 8 2 12 14 9 13 19 15 2 4 14 16 26 41 37 37 34 32 34 38 36 33 28 25 23 20 16 17 15 13 12 15 18 19 20 20 20 20 21 21 23 26 28 30 34
7 5 15 6 7 6 15 17 8 10 8 22 12 8 12 27 32 35 39 37 35 34 29 39 38 36 32 28 25 23 19 17 17 13 11 12 17 19 21 22 22 21 21 21 22 23 24 29 31
4 5 9 12 8 6 22 12 7 9 14 10 7 2 12 27 39 40 37 40 41 38 34 32 35 36 34 31 29 26 23 21 17 16 13 11 15 16 18 19 20 20 20 21 22 23 24 26 26
5 6 12 14 17 9 18 16 24 9 18 16 15 19 20 35 34 43 49 50 46 44 39 36 37 35 35 31 34 31 29 28 24 21 20 17 17 12 14 15 16 16 16 19 21 24 25 22 23
8 7 12 14 17 7 2 10 8 13 10 26 32 34 32 36 32 45 50 51 52 45 41 43 41 38 33 40 32 35 35 34 32 29 30 24 21 10 16 14 14 14 13 11 14 15 18 21 19
4 5 8 6 4 3 3 3 13 24 10 10 13 19 34 41 38 45 48 49 51 50 49 46 48 43 41 40 39 38 38 38 37 35 35 35 31 19 14 16 14 16 17 9 4 4 8 12 20
6 5 1 1 1 3 6 10 12 25 32 33 23 16 30 34 39 40 44 46 48 53 53 57 52 52 50 49 48 43 42 41 36 39 38 36 41 24 26 20 22 21 20 16 7 7 10 15 20
9 6 9 8 12 6 4 11 11 11 24 32 33 31 33 37 39 41 46 53 56 56 56 58 61 57 60 64 58 55 51 46 43 43 42 43 43 33 28 29 27 28 28 23 22 18 13 22 23
2 5 11 18 16 3 6 11 21 41 24 18 32 36 35 42 42 49 51 57 59 64 61 65 64 70 71 69 68 63 56 52 52 53 50 51 48 45 40 38 35 36 32 29 29 25 17 18 28
4 4 6 2 21 7 6 11 17 10 42 35 28 34 42 43 50 50 55 56 60 64 69 69 72 67 71 68 67 61 60 60 58 52 56 61 56 56 50 48 43 40 42 36 37 33 28 20 26
8 8 15 8 17 9 13 10 8 2 7 17 28 35 43 45 47 58 57 61 62 66 72 76 76 76 70 71 71 68 70 66 61 61 65 66 60 61 56 52 51 50 48 44 43 46 39 28 26
6 9 11 5 11 2 10 21 23 42 31 29 31 35 38 43 51 54 58 59 68 68 72 76 75 79 75 72 74 72 72 70 66 65 68 67 65 63 62 62 61 60 56 53 47 50 50 39 30
8 13 16 7 5 5 13 22 20 40 44 38 42 50 54 56 53 49 58 65 64 70 71 76 78 80 79 79 81 81 81 79 76 75 71 79 79 69 69 68 65 70 66 58 53 63 65 55 46
5 10 15 15 11 1 15 24 23 23 43 55 57 58 60 60 57 57 60 65 67 68 75 78 82 82 81 81 82 82 80 80 81 77 80 81 80 77 81 79 74 73 72 66 70 60 74 62 54
10 13 13 14 4 11 9 16 18 22 56 53 56 66 63 63 61 53 55 66 70 70 73 80 85 86 84 81 80 81 80 83 87 86 85 88 85 76 85 87 82 76 79 76 76 72 84 80 63
11 6 16 8 12 6 9 12 16 19 25 16 45 51 53 52 50 50 49 55 73 72 65 72 79 86 86 82 84 87 89 90 88 83 80 83 85 84 86 88 90 84 81 85 81 79 76 80 76
4 6 9 3 4 9 9 7 15 17 15 19 26 43 45 45 33 34 38 45 57 59 66 65 71 80 84 84 86 87 89 89 89 84 77 76 76 86 88 90 93 92 88 86 89 91 86 90 85
15 8 6 3 2 10 18 17 9 14 8 6 7 3 6 10 15 19 29 37 44 53 59 64 64 70 78 83 87 89 90 88 88 88 86 81 78 80 89 93 95 92 90 90 92 84 90 92 94
6 10 2 5 0 14 4 7 19 18 19 5 8 25 27 29 25 22 22 24 32 43 52 57 59 62 68 76 82 84 84 86 85 85 87 84 82 82 86 92 95 95 90 89 88 87 102 99 97
16 13 11 13 9 9 9 17 13 8 4 14 16 24 38 49 41 46 39 42 36 37 40 42 47 54 60 65 71 74 77 83 84 85 90 89 85 80 76 86 93 92 91 92 87 96 104 99 91
11 15 9 8 5 5 10 20 26 17 12 21 34 34 26 32 31 33 44 35 40 38 38 38 39 40 45 49 52 57 63 70 75 79 85 89 85 78 73 76 86 87 89 87 96 86 82 80 81
8 2 3 4 7 10 15 15 25 11 17 19 5 11 26 33 31 32 25 28 35 40 35 32 31 28 29 34 39 41 47 54 60 67 77 85 84 79 74 72 81 84 83 86 80 82 85 88 88
6 8 7 7 9 9 6 14 11 8 13 14 9 16 33 29 29 28 18 23 30 31 28 24 22 19 19 23 29 37 41 48 52 58 66 73 79 82 73 69 76 83 87 86 86 90 84 92 79
9 14 17 8 6 7 7 29 9 10 8 19 9 18 16 25 24 28 34 31 22 21 23 20 18 17 16 29 39 41 44 49 52 55 60 66 73 78 70 64 68 69 85 84 88 85 95 81 84
Wind_Direction_500mb
237 317 330 310 264 210 105 82 95 87 101 52 60 34 25 42 19 96 125 139 160 159 156 151 151 143 146 133 98 83 83 86 89 91 90 93 96 102 102 110 114 122 104 98 88 83 85 91 94
262 344 318 269 244 297 75 109 116 92 84 93 76 335 133 80 66 135 138 164 172 156 158 154 154 149 148 142 107 96 90 88 87 88 86 87 92 98 108 116 118 116 100 94 89 87 92 96 97
224 248 267 237 278 51 84 70 107 88 103 124 126 67 10 82 118 143 159 163 167 166 168 162 158 157 154 154 130 111 104 101 94 86 81 84 88 93 100 113 120 96 91 95 95 96 99 99 101
113 270 252 272 353 70 46 51 102 108 87 125 342 117 94 103 139 168 157 155 156 167 189 172 170 165 163 161 144 118 115 109 97 84 79 80 85 91 97 101 98 95 100 100 103 105 106 106 107
256 272 270 223 90 85 89 58 123 160 133 153 195 116 95 130 151 164 149 155 161 160 189 182 177 171 170 168 158 142 136 132 116 98 89 87 88 94 100 103 101 99 100 103 103 103 107 109 112
267 272 273 224 90 108 106 124 147 148 116 94 174 254 105 192 181 153 157 158 172 175 190 187 181 180 177 173 174 167 157 152 140 122 105 100 94 91 93 97 97 100 103 104 105 108 111 113 115
273 235 271 344 59 71 115 147 179 156 139 174 297 306 136 173 159 161 166 160 174 186 207 189 186 184 184 185 185 180 172 164 159 143 119 103 95 92 96 99 101 103 105 106 106 110 116 119 123
269 289 264 225 292 57 113 150 176 184 119 134 159 337 152 190 174 168 168 173 183 185 186 190 191 192 192 193 192 188 185 177 177 162 143 123 109 104 102 98 99 101 104 105 108 114 120 124 127
287 311 254 242 140 67 125 165 157 167 120 151 182 243 118 185 186 168 174 181 194 196 196 190 199 197 201 202 199 195 196 196 198 185 178 162 143 138 122 113 108 107 107 109 112 116 123 129 132
213 208 279 14 45 26 140 217 155 160 187 187 194 229 156 193 196 176 180 188 195 201 205 203 204 205 202 207 206 203 203 208 211 208 201 194 193 179 155 140 127 116 113 116 120 124 128 133 131
206 241 4 64 67 46 99 208 246 180 234 204 209 217 183 203 200 189 194 197 200 210 206 205 207 211 206 210 214 210 211 213 215 211 203 198 217 205 186 185 164 146 127 123 132 144 151 162 155
302 249 6 38 49 75 309 316 229 226 226 181 201 212 208 208 209 204 206 201 204 205 204 209 212 210 206 216 216 219 214 212 214 218 207 202 212 214 229 227 202 182 161 174 180 188 189 175 159
237 133 62 113 181 216 297 263 253 260 247 248 242 201 210 217 217 217 213 210 212 212 214 205 208 211 208 212 221 223 217 216 218 220 216 220 214 218 201 237 244 222 210 199 222 238 231 207 186
18 20 226 194 210 198 225 276 240 259 244 233 241 230 207 228 222 220 214 215 212 219 215 219 214 205 209 212 212 218 222 223 220 222 223 225 225 234 232 241 240 230 233 243 228 210 235 220 207
51 271 217 219 214 190 202 279 240 244 234 228 227 234 235 223 228 224 230 219 219 217 222 219 228 210 217 219 219 224 226 227 226 233 231 228 232 237 243 237 239 239 232 247 230 213 212 237 216
217 212 238 91 146 171 178 265 280 231 226 228 241 240 240 234 235 236 231 235 224 221 222 221 228 229 223 222 224 222 226 226 234 233 235 238 236 235 240 242 239 240 234 234 235 218 210 230 227
197 262 212 173 192 131 196 277 52 201 246 249 253 249 243 241 237 239 241 233 235 227 226 228 230 232 230 224 230 228 229 232 227 229 239 243 238 232 233 241 240 243 237 234 227 227 217 210 235
259 224 254 231 186 230 233 259 282 281 263 239 249 254 249 243 241 244 245 246 234 234 229 233 232 234 234 230 229 232 233 234 228 227 232 239 240 236 231 234 238 238 234 232 236 233 217 214 229
51 321 335 346 128 172 235 266 259 270 270 259 255 247 248 249 244 249 245 247 247 237 232 231 232 235 235 231 229 231 234 237 236 233 227 235 237 235 238 236 237 236 237 241 238 222 218 209 217
166 272 281 283 114 212 275 273 267 256 261 252 252 255 254 255 254 250 247 243 245 246 235 232 236 239 239 235 236 236 240 244 246 244 240 239 242 236 234 237 237 240 237 233 230 234 220 210 216
240 240 262 265 168 219 285 270 258 248 239 253 255 256 258 257 256 253 245 242 243 246 243 237 238 240 241 240 238 238 238 241 245 243 242 242 243 240 235 238 235 238 240 245 243 243 228 216 223
257 343 241 316 344 251 51 288 294 305 296 225 239 250 257 262 263 260 248 248 243 251 256 247 239 238 241 240 239 239 241 241 250 251 248 247 245 239 236 236 233 234 242 241 242 248 243 231 228
206 36 80 80 271 302 194 265 267 230 260 260 250 258 272 267 270 267 258 244 249 248 251 251 247 241 240 241 241 242 243 245 249 251 251 250 248 239 236 234 234 233 237 240 241 246 240 232 230
137 95 100 147 203 275 181 202 226 230 238 306 335 309 324 347 276 271 251 250 248 251 248 250 250 246 241 241 242 243 245 246 246 250 251 252 250 244 237 235 234 236 238 239 237 236 239 232 232
184 145 247 301 97 241 104 252 232 290 299 279 289 302 296 311 297 294 278 257 252 248 250 251 249 247 242 241 243 244 245 249 250 253 255 253 253 250 243 237 235 233 236 236 241 240 240 237 228
204 186 174 202 194 263 359 244 260 204 360 306 313 311 308 308 316 308 291 281 267 253 249 247 246 244 243 244 246 248 248 251 254 254 258 259 258 256 254 244 237 236 238 236 242 238 242 238 233
181 218 263 330 57 22 228 272 288 248 230 261 284 297 315 321 312 301 293 277 261 250 247 252 251 246 244 248 250 253 254 255 256 255 259 261 261 258 255 246 238 236 240 234 241 238 239 238 237
191 244 165 243 184 224 256 267 246 313 293 276 345 28 359 347 324 325 300 283 259 263 258 252 246 242 242 246 252 257 261 260 260 258 255 261 265 261 255 248 236 236 240 235 237 237 239 239 234
155 213 220 171 199 179 253 257 197 207 106 83 45 352 329 333 332 341 333 287 271 272 259 245 240 249 258 266 268 264 266 263 263 261 261 260 261 262 257 251 239 236 237 235 235 239 240 233 235
224 220 199 156 236 217 204 269 82 322 344 312 318 335 331 334 332 358 7 2 346 314 279 254 259 256 287 296 280 275 271 269 264 265 263 264 261 261 259 250 241 240 236 237 239 239 234 236 244
Wind_Speed_850mb
8 5 6 10 2 6 7 9 16 13 8 10 19 12 6 29 11 7 28 27 34 36 34 32 26 27 25 19 17 19 21 25 27 28 27 26 26 27 30 38 26 19 21 22 30 31 34 40 45
5 1 8 11 5 2 8 16 12 16 25 17 10 4 1 9 13 31 38 33 35 34 32 29 28 27 25 19 17 17 18 22 23 26 26 25 23 24 27 32 26 19 22 29 30 31 35 40 45
3 1 7 5 5 10 8 5 18 25 18 9 8 3 9 11 20 41 27 38 32 27 28 29 27 27 25 21 17 16 17 18 20 25 25 23 22 21 21 22 21 21 26 29 29 32 36 40 46
4 6 11 3 8 15 15 11 37 19 7 5 5 14 10 16 27 27 36 38 35 32 29 28 28 27 25 22 16 15 14 15 18 21 23 23 22 20 20 19 18 21 24 26 28 31 34 39 45
2 11 7 6 5 11 12 16 27 14 19 16 5 8 10 23 25 23 46 38 37 32 27 30 30 28 26 23 18 15 13 14 15 17 19 21 20 19 19 18 20 21 22 24 26 29 31 36 41
9 8 7 7 13 16 10 13 15 15 17 17 3 5 11 19 24 36 43 40 32 36 35 34 34 31 27 23 20 17 14 15 15 14 16 18 19 18 18 17 19 21 22 23 25 27 31 36 38
6 4 14 13 8 2 12 14 9 13 19 15 2 4 14 16 26 41 37 37 34 32 34 38 36 33 28 25 23 20 16 17 15 13 12 15 18 19 20 20 20 20 21 21 23 26 28 30 34
7 5 15 6 7 6 15 17 8 10 8 22 12 8 12 27 32 35 39 37 35 34 29 39 38 36 32 28 25 23 19 17 17 13 11 12 17 19 21 22 22 21 21 21 22 23 24 29 31
4 5 9 12 8 6 22 12 7 9 14 10 7 2 12 27 39 40 37 40 41 38 34 32 35 36 34 31 29 26 23 21 17 16 13 11 15 16 18 19 20 20 20 21 22 23 24 26 26
5 6 12 14 17 9 18 16 24 9 18 16 15 19 20 35 34 43 49 50 46 44 39 36 37 35 35 31 34 31 29 28 24 21 20 17 17 12 14 15 16 16 16 19 21 24 25 22 23
8 7 12 14 17 7 2 10 8 13 10 26 32 34 32 36 32 45 50 51 52 45 41 43 41 38 33 40 32 35 35 34 32 29 30 24 21 10 16 14 14 14 13 11 14 15 18 21 19
4 5 8 6 4 3 3 3 13 24 10 10 13 19 34 41 38 45 48 49 51 50 49 46 48 43 41 40 39 38 38 38 37 35 35 35 31 19 14 16 14 16 17 9 4 4 8 12 20
6 5 1 1 1 3 6 10 12 25 32 33 23 16 30 34 39 40 44 46 48 53 53 57 52 52 50 49 48 43 42 41 36 39 38 36 41 24 26 20 22 21 20 16 7 7 10 15 20
9 6 9 8 12 6 4 11 11 11 24 32 33 31 33 37 39 41 46 53 56 56 56 58 61 57 60 64 58 55 51 46 43 43 42 43 43 33 28 29 27 28 28 23 22 18 13 22 23
2 5 11 18 16 3 6 11 21 41 24 18 32 36 35 42 42 49 51 57 59 64 61 65 64 70 71 69 68 63 56 52 52 53 50 51 48 45 40 38 35 36 32 29 29 25 17 18 28
4 4 6 2 21 7 6 11 17 10 42 35 28 34 42 43 50 50 55 56 60 64 69 69 72 67 71 68 67 61 60 60 58 52 56 61 56 56 50 48 43 40 42 36 37 33 28 20 26
8 8 15 8 17 9 13 10 8 2 7 17 28 35 43 45 47 58 57 61 62 66 72 76 76 76 70 71 71 68 70 66 61 61 65 66 60 61 56 52 51 50 48 44 43 46 39 28 26
6 9 11 5 11 2 10 21 23 42 31 29 31 35 38 43 51 54 58 59 68 68 72 76 75 79 75 72 74 72 72 70 66 65 68 67 65 63 62 62 61 60 56 53 47 50 50 39 30
8 13 16 7 5 5 13 22 20 40 44 38 42 50 54 56 53 49 58 65 64 70 71 76 78 80 79 79 81 81 81 79 76 75 71 79 79 69 69 68 65 70 66 58 53 63 65 55 46
5 10 15 15 11 1 15 24 23 23 43 55 57 58 60 60 57 57 60 65 67 68 75 78 82 82 81 81 82 82 80 80 81 77 80 81 80 77 81 79 74 73 72 66 70 60 74 62 54
10 13 13 14 4 11 9 16 18 22 56 53 56 66 63 63 61 53 55 66 70 70 73 80 85 86 84 81 80 81 80 83 87 86 85 88 85 76 85 87 82 76 79 76 76 72 84 80 63
11 6 16 8 12 6 9 12 16 19 25 16 45 51 53 52 50 50 49 55 73 72 65 72 79 86 86 82 84 87 89 90 88 83 80 83 85 84 86 88 90 84 81 85 81 79 76 80 76
4 6 9 3 4 9 9 7 15 17 15 19 26 43 45 45 33 34 38 45 57 59 66 65 71 80 84 84 86 87 89 89 89 84 77 76 76 86 88 90 93 92 88 86 89 91 86 90 85
15 8 6 3 2 10 18 17 9 14 8 6 7 3 6 10 15 19 29 37 44 53 59 64 64 70 78 83 87 89 90 88 88 88 86 81 78 80 89 93 95 92 90 90 92 84 90 92 94
6 10 2 5 0 14 4 7 19 18 19 5 8 25 27 29 25 22 22 24 32 43 52 57 59 62 68 76 82 84 84 86 85 85 87 84 82 82 86 92 95 95 90 89 88 87 102 99 97
16 13 11 13 9 9 9 17 13 8 4 14 16 24 38 49 41 46 39 42 36 37 40 42 47 54 60 65 71 74 77 83 84 85 90 89 85 80 76 86 93 92 91 92 87 96 104 99 91
11 15 9 8 5 5 10 20 26 17 12 21 34 34 26 32 31 33 44 35 40 38 38 38 39 40 45 49 52 57 63 70 75 79 85 89 85 78 73 76 86 87 89 87 96 86 82 80 81
8 2 3 4 7 10 15 15 25 11 17 19 5 11 26 33 31 32 25 28 35 40 35 32 31 28 29 34 39 41 47 54 60 67 77 85 84 79 74 72 81 84 83 86 80 82 85 88 88
6 8 7 7 9 9 6 14 11 8 13 14 9 16 33 29 29 28 18 23 30 31 28 24 22 19 19 23 29 37 41 48 52 58 66 73 79 82 73 69 76 83 87 86 86 90 84 92 79
9 14 17 8 6 7 7 29 9 10 8 19 9 18 16 25 24 28 34 31 22 21 23 20 18 17 16 29 39 41 44 49 52 55 60 66 73 78 70 64 68 69 85 84 88 85 95 81 84
Wind_Direction_850mb
237 317 330 310 264 210 105 82 95 87 101 52 60 34 25 42 19 96 125 139 160 159 156 151 151 143 146 133 98 83 83 86 89 91 90 93 96 102 102 110 114 122 104 98 88 83 85 91 94
262 344 318 269 244 297 75 109 116 92 84 93 76 335 133 80 66 135 138 164 172 156 158 154 154 149 148 142 107 96 90 88 87 88 86 87 92 98 108 116 118 116 100 94 89 87 92 96 97
224 248 267 237 278 51 84 70 107 88 103 124 126 67 10 82 118 143 159 163 167 166 168 162 158 157 154 154 130 111 104 101 94 86 81 84 88 93 100 113 120 96 91 95 95 96 99 99 101
113 270 252 272 353 70 46 51 102 108 87 125 342 117 94 103 139 168 157 155 156 167 189 172 170 165 163 161 144 118 115 109 97 84 79 80 85 91 97 101 98 95 100 100 103 105 106 106 107
256 272 270 223 90 85 89 58 123 160 133 153 195 116 95 130 151 164 149 155 161 160 189 182 177 171 170 168 158 142 136 132 116 98 89 87 88 94 100 103 101 99 100 103 103 103 107 109 112
267 272 273 224 90 108 106 124 147 148 116 94 174 254 105 192 181 153 157 158 172 175 190 187 181 180 177 173 174 167 157 152 140 122 105 100 94 91 93 97 97 100 103 104 105 108 111 113 115
273 235 271 344 59 71 115 147 179 156 139 174 297 306 136 173 159 161 166 160 174 186 207 189 186 184 184 185 185 180 172 164 159 143 119 103 95 92 96 99 101 103 105 106 106 110 116 119 123
269 289 264 225 292 57 113 150 176 184 119 134 159 337 152 190 174 168 168 173 183 185 186 190 191 192 192 193 192 188 185 177 177 162 143 123 109 104 102 98 99 101 104 105 108 114 120 124 127
287 311 254 242 140 67 125 165 157 167 120 151 182 243 118 185 186 168 174 181 194 196 196 190 199 197 201 202 199 195 196 196 198 185 178 162 143 138 122 113 108 107 107 109 112 116 123 129 132
213 208 279 14 45 26 140 217 155 160 187 187 194 229 156 193 196 176 180 188 195 201 205 203 204 205 202 207 206 203 203 208 211 208 201 194 193 179 155 140 127 116 113 116 120 124 128 133 131
206 241 4 64 67 46 99 208 246 180 234 204 209 217 183 203 200 189 194 197 200 210 206 205 207 211 206 210 214 210 211 213 215 211 203 198 217 205 186 185 164 146 127 123 132 144 151 162 155
302 249 6 38 49 75 309 316 229 226 226 181 201 212 208 208 209 204 206 201 204 205 204 209 212 210 206 216 216 219 214 212 214 218 207 202 212 214 229 227 202 182 161 174 180 188 189 175 159
237 133 62 113 181 216 297 263 253 260 247 248 242 201 210 217 217 217 213 210 212 212 214 205 208 211 208 212 221 223 217 216 218 220 216 220 214 218 201 237 244 222 210 199 222 238 231 207 186
18 20 226 194 210 198 225 276 240 259 244 233 241 230 207 228 222 220 214 215 212 219 215 219 214 205 209 212 212 218 222 223 220 222 223 225 225 234 232 241 240 230 233 243 228 210 235 220 207
51 271 217 219 214 190 202 279 240 244 234 228 227 234 235 223 228 224 230 219 219 217 222 219 228 210 217 219 219 224 226 227 226 233 231 228 232 237 243 237 239 239 232 247 230 213 212 237 216
217 212 238 91 146 171 178 265 280 231 226 228 241 240 240 234 235 236 231 235 224 221 222 221 228 229 223 222 224 222 226 226 234 233 235 238 236 235 240 242 239 240 234 234 235 218 210 230 227
197 262 212 173 192 131 196 277 52 201 246 249 253 249 243 241 237 239 241 233 235 227 226 228 230 232 230 224 230 228 229 232 227 229 239 243 238 232 233 241 240 243 237 234 227 227 217 210 235
259 224 254 231 186 230 233 259 282 281 263 239 249 254 249 243 241 244 245 246 234 234 229 233 232 234 234 230 229 232 233 234 228 227 232 239 240 236 231 234 238 238 234 232 236 233 217 214 229
51 321 335 346 128 172 235 266 259 270 270 259 255 247 248 249 244 249 245 247 247 237 232 231 232 235 235 231 229 231 234 237 236 233 227 235 237 235 238 236 237 236 237 241 238 222 218 209 217
166 272 281 283 114 212 275 273 267 256 261 252 252 255 254 255 254 250 247 243 245 246 235 232 236 239 239 235 236 236 240 244 246 244 240 239 242 236 234 237 237 240 237 233 230 234 220 210 216
240 240 262 265 168 219 285 270 258 248 239 253 255 256 258 257 256 253 245 242 243 246 243 237 238 240 241 240 238 238 238 241 245 243 242 242 243 240 235 238 235 238 240 245 243 243 228 216 223
257 343 241 316 344 251 51 288 294 305 296 225 239 250 257 262 263 260 248 248 243 251 256 247 239 238 241 240 239 239 241 241 250 251 248 247 245 239 236 236 233 234 242 241 242 248 243 231 228
206 36 80 80 271 302 194 265 267 230 260 260 250 258 272 267 270 267 258 244 249 248 251 251 247 241 240 241 241 242 243 245 249 251 251 250 248 239 236 234 234 233 237 240 241 246 240 232 230
137 95 100 147 203 275 181 202 226 230 238 306 335 309 324 347 276 271 251 250 248 251 248 250 250 246 241 241 242 243 245 246 246 250 251 252 250 244 237 235 234 236 238 239 237 236 239 232 232
184 145 247 301 97 241 104 252 232 290 299 279 289 302 296 311 297 294 278 257 252 248 250 251 249 247 242 241 243 244 245 249 250 253 255 253 253 250 243 237 235 233 236 236 241 240 240 237 228
204 186 174 202 194 263 359 244 260 204 360 306 313 311 308 308 316 308 291 281 267 253 249 247 246 244 243 244 246 248 248 251 254 254 258 259 258 256 254 244 237 236 238 236 242 238 242 238 233
181 218 263 330 57 22 228 272 288 248 230 261 284 297 315 321 312 301 293 277 261 250 247 252 251 246 244 248 250 253 254 255 256 255 259 261 261 258 255 246 238 236 240 234 241 238 239 238 237
191 244 165 243 184 224 256 267 246 313 293 276 345 28 359 347 324 325 300 283 259 263 258 252 246 242 242 246 252 257 261 260 260 258 255 261 265 261 255 248 236 236 240 235 237 237 239 239 234
155 213 220 171 199 179 253 257 197 207 106 83 45 352 329 333 332 341 333 287 271 272 259 245 240 249 258 266 268 264 266 263 263 261 261 260 261 262 257 251 239 236 237 235 235 239 240 233 235
224 220 199 156 236 217 204 269 82 322 344 312 318 335 331 334 332 358 7 2 346 314 279 254 259 256 287 296 280 275 271 269 264 265 263 264 261 261 259 250 241 240 236 237 239 239 234 236 244